CDT,Max TemperatureF,Mean TemperatureF,Min TemperatureF,Max Dew PointF,MeanDew PointF,Min DewpointF,Max Humidity, Mean Humidity, Min Humidity, Max Sea Level PressureIn, Mean Sea Level PressureIn, Min Sea Level PressureIn, Max VisibilityMiles, Mean VisibilityMiles, Min VisibilityMiles, Max Wind SpeedMPH, Mean Wind SpeedMPH, Max Gust SpeedMPH,PrecipitationIn, CloudCover, Events, WindDirDegrees
2012-8-1,98,87,76,76,72,63,100,67,33,30.00,29.94,29.88,10,8,2,13,4,16,0.00,2,,282
2012-8-2,93,84,74,77,72,64,94,68,41,29.99,29.93,29.88,10,10,6,23,3,29,0.06,2,Rain-Thunderstorm,212
2012-8-3,89,82,74,75,73,70,94,76,57,30.03,29.97,29.91,10,9,5,21,4,25,0.15,3,Rain-Thunderstorm,172
2012-8-4,92,83,73,74,72,69,94,73,52,30.11,30.07,29.99,10,9,2,22,3,26,0.23,3,Rain-Thunderstorm,170
2012-8-5,91,82,73,75,71,70,93,73,52,30.21,30.12,30.05,10,10,10,13,4,18,0.00,0,,79
2012-8-6,91,83,75,73,71,70,87,70,52,30.11,30.04,29.97,10,10,10,12,4,13,T,2,,64
2012-8-7,90,83,75,77,73,71,94,75,56,30.05,29.99,29.93,10,10,10,14,2,17,0.04,4,,56
2012-8-8,91,83,74,75,72,68,94,73,52,30.06,30.00,29.95,10,10,8,13,2,17,T,3,Thunderstorm,173
2012-8-9,82,76,70,74,71,68,94,84,74,30.02,29.93,29.84,10,8,0,31,4,43,1.01,5,Fog-Rain-Thunderstorm,223
2012-8-10,83,76,69,73,70,66,97,83,69,29.92,29.88,29.82,10,8,1,20,5,26,0.76,6,Rain-Thunderstorm,181
2012-8-11,85,75,65,72,67,56,100,69,37,30.01,29.93,29.85,10,8,3,15,5,23,T,4,Rain,356
2012-8-12,85,73,61,62,58,52,93,64,34,30.10,30.04,30.00,10,10,10,14,3,20,0.00,0,,349
2012-8-13,82,73,63,72,67,60,87,74,60,30.05,30.01,29.93,10,10,2,20,5,24,0.24,4,Rain-Thunderstorm,177
2012-8-14,88,80,71,72,70,67,93,72,50,30.00,29.96,29.89,10,10,7,14,5,17,0.11,4,Rain-Thunderstorm,250
2012-8-15,85,77,69,70,69,65,97,76,55,30.04,29.99,29.94,10,10,7,9,2,14,0.00,1,,1
2012-8-16,91,80,68,71,68,65,97,71,44,30.07,30.03,29.95,10,9,7,14,3,17,0.00,1,,251
2012-8-17,84,76,68,71,69,66,93,78,62,30.07,29.98,29.93,10,10,4,15,4,20,0.29,5,Rain,302
2012-8-18,85,77,69,73,70,66,94,76,58,29.99,29.94,29.88,10,8,2,25,4,32,0.87,7,Rain-Thunderstorm,260
2012-8-19,80,74,68,70,68,66,97,82,67,29.95,29.91,29.87,10,10,2,10,4,23,0.04,5,Rain,252
2012-8-20,85,75,65,67,63,55,100,70,40,29.98,29.95,29.91,10,8,0,13,3,16,0.00,2,Fog,46
2012-8-21,86,75,63,64,60,50,93,62,31,30.06,30.03,29.97,10,10,10,13,3,17,0.00,0,,358
2012-8-22,88,75,61,63,58,50,93,61,29,30.14,30.09,30.06,10,10,9,16,4,23,0.00,1,,27
2012-8-23,88,75,62,65,60,56,93,64,35,30.15,30.10,30.06,10,10,10,10,3,15,0.00,1,,40
2012-8-24,89,77,64,67,64,61,87,64,40,30.13,30.08,30.02,10,10,9,12,3,16,0.00,1,,102
2012-8-25,85,79,73,70,68,64,82,70,58,30.13,30.09,30.05,10,10,9,12,4,16,0.00,1,,102
2012-8-26,89,80,70,69,64,60,84,62,40,30.17,30.10,30.04,10,10,10,9,2,13,0.00,0,,116
2012-8-27,91,80,69,66,64,62,84,63,41,30.11,30.02,29.94,10,10,8,16,6,21,0.00,0,,58
2012-8-28,83,79,74,74,71,63,94,76,58,30.01,29.95,29.89,10,8,3,16,8,23,0.27,5,Rain,60
2012-8-29,85,80,74,72,71,70,87,74,61,30.00,29.93,29.88,10,10,10,14,8,21,T,2,Rain,88
2012-8-30,82,79,76,73,72,71,88,79,69,30.10,30.00,29.91,10,10,9,15,8,23,T,5,,116
2012-8-31,87,82,77,75,73,71,88,76,63,30.21,30.15,30.10,10,10,10,15,7,21,0.00,5,,155